Caldwell, NJ

3:49 PM EST on February 13, 2016 (GMT -0500)
Essex County

Weather History for KCDW - January, 2014

Change the Weather History Date:

Friday, January 31, 2014

  Actual Average Record
Temperature  
Mean Temperature 28 °F -  
Max Temperature 37 °F 37 °F 63 °F (2013)
Min Temperature 19 °F 19 °F 0 °F (1965)
Degree Days  
Heating Degree Days 37    
Moisture  
Dew Point 12 °F    
Average Humidity 51    
Maximum Humidity 61    
Minimum Humidity 37    
Precipitation  
Precipitation 0.00 in - - ()
Sea Level Pressure  
Sea Level Pressure 30.19 in    
Wind  
Wind Speed 3 mph (SW)    
Max Wind Speed 8 mph    
Max Gust Speed -    
Visibility 10 miles    
Events Rain    
Averages and records for this station are not official NWS values.
T = Trace of Precipitation, MM = Missing Value Source: NWS Daily Summary

Daily Weather History Graph

Daily Weather History Graph

Search for Another Location

Airport or City:

Trip Planner

Search our weather history database for the weather conditions in past years. The results will help you decide how hot, cold, wet, or windy it might be!

Date:

Astronomy

Jan. 31, 2014 Rise Set
Actual Time 7:08 AM EST 5:13 PM EST
Civil Twilight 6:39 AM EST 5:42 PM EST
Nautical Twilight 6:06 AM EST 6:15 PM EST
Astronomical Twilight 5:34 AM EST 6:47 PM EST
Moon 7:15 AM EST (1/31) 6:35 PM EST (1/31)
Length of Visible Light 11h 03m
Length of Day
10h 04m
New Moon, 1% of the Moon is Illuminated
Jan 31
New Moon
Feb 6
First Quarter
Feb 14
Full
Feb 22
Last Quarter
Mar 1
New

Hourly Weather History & Observations

Time (EST) Temp. Windchill Dew Point Humidity Pressure Visibility Wind Dir Wind Speed Gust Speed Precip Events Conditions
12:53 AM 19.9 °F 13.4 °F 5.0 °F 52% 30.20 in 10.0 mi SW 4.6 mph - N/A   Clear
1:53 AM 19.9 °F 14.9 °F 5.0 °F 52% 30.18 in 10.0 mi WSW 3.5 mph - N/A   Clear
2:53 AM 19.9 °F - 7.0 °F 57% 30.19 in 10.0 mi Calm Calm - N/A   Clear
3:53 AM 19.9 °F - 6.1 °F 55% 30.16 in 10.0 mi Calm Calm - N/A   Clear
4:53 AM 21.0 °F - 7.0 °F 55% 30.17 in 10.0 mi Calm Calm - N/A   Clear
5:53 AM 21.9 °F 17.2 °F 8.1 °F 55% 30.14 in 10.0 mi WSW 3.5 mph - N/A   Scattered Clouds
6:53 AM 23.0 °F - 9.0 °F 55% 30.15 in 10.0 mi Calm Calm - N/A   Overcast
7:53 AM 24.1 °F - 10.0 °F 55% 30.17 in 10.0 mi Calm Calm - N/A   Overcast
8:53 AM 26.1 °F 20.5 °F 10.0 °F 51% 30.19 in 10.0 mi SW 4.6 mph - N/A   Overcast
9:53 AM 28.0 °F 22.8 °F 10.0 °F 47% 30.19 in 10.0 mi WSW 4.6 mph - N/A   Overcast
10:53 AM 28.9 °F 21.1 °F 10.0 °F 45% 30.19 in 10.0 mi SW 8.1 mph - N/A   Scattered Clouds
11:53 AM 30.0 °F 26.5 °F 10.9 °F 45% 30.17 in 10.0 mi Variable 3.5 mph - N/A   Partly Cloudy
12:53 PM 30.9 °F 26.2 °F 12.9 °F 47% 30.15 in 10.0 mi Variable 4.6 mph - N/A   Overcast
1:53 PM 33.1 °F 28.7 °F 12.9 °F 43% 30.16 in 10.0 mi SSW 4.6 mph - N/A   Overcast
2:53 PM 35.1 °F - 12.9 °F 40% 30.16 in 10.0 mi Calm Calm - N/A   Mostly Cloudy
3:53 PM 37.0 °F 31.6 °F 12.9 °F 37% 30.15 in 10.0 mi South 6.9 mph - N/A   Overcast
4:53 PM 36.0 °F - 12.9 °F 39% 30.15 in 10.0 mi Calm Calm - N/A   Overcast
5:53 PM 36.0 °F 33.3 °F 14.0 °F 41% 30.19 in 4.0 mi SW 3.5 mph - 0.00 in Rain Light Rain
6:53 PM 30.9 °F - 18.0 °F 59% 30.22 in 10.0 mi Calm Calm - 0.00 in   Mostly Cloudy
7:53 PM 30.0 °F 26.5 °F 18.0 °F 61% 30.24 in 10.0 mi South 3.5 mph - N/A   Clear
8:53 PM 28.9 °F - 16.0 °F 58% 30.24 in 10.0 mi Calm Calm - N/A   Clear
9:53 PM 28.9 °F - 17.1 °F 61% 30.25 in 10.0 mi Calm Calm - N/A   Overcast
10:53 PM 30.9 °F 27.5 °F 18.0 °F 59% 30.26 in 10.0 mi SSW 3.5 mph - N/A   Overcast
11:53 PM 30.0 °F - 18.0 °F 61% 30.27 in 10.0 mi Calm Calm - N/A   Partly Cloudy